Station EBEF1 - 8726674 - East Bay, FL Image indicating link to RSS feed of recent meteorological observations for station EBEF1


Conditions at EBEF1 as of
(3:18 am EDT)
0718 GMT on 05/30/2024:
     

Click on the graph icon in the table below to see a time series plot of the last five days of that observation.

5-day plot - Atmospheric Pressure Atmospheric Pressure (PRES):30.00 in
5-day plot - Air Temperature Air Temperature (ATMP): 79.7 °F
5-day plot - Water Temperature Water Temperature (WTMP): 87.1 °F
NOS Water Level Observation Network Water Level
Previous observations
TIME
(EDT)
5-day plot - Wind Direction
WDIR
 
5-day plot - Wind Speed
WSPD
kts
5-day plot - Wind Gust
GST
kts
5-day plot - Wave Height
WVHT
ft
5-day plot - Dominant Wave Period
DPD
sec
5-day plot - Average Wave Period
APD
sec
5-day plot - Mean Wave Direction
MWD
 
5-day plot - Atmospheric Pressure
PRES
in
5-day plot - Pressure Tendency
PTDY
in
5-day plot - Air Temperature
ATMP
°F
5-day plot - Water Temperature
WTMP
°F
5-day plot - Dew Point
DEWP
°F
5-day plot - Salinity
SAL
psu
5-day plot - Visibility
VIS
nmi
5-day plot - Tide (above MLLW)
TIDE
ft
2024-05-30 03:12 am-------30.00- 79.2 87.1----
2024-05-30 03:06 am-------30.00- 80.1 87.1----
2024-05-30 03:00 am-------30.00-0.04 80.6 87.1----
2024-05-30 02:54 am-------30.00- 80.2 87.3----
2024-05-30 02:48 am-------30.01- 79.7 87.1----
2024-05-30 02:42 am-------30.01- 79.5 87.1----
2024-05-30 02:36 am-------30.01- 79.5 87.3----
2024-05-30 02:30 am-------30.01- 79.7 87.3----
2024-05-30 02:24 am-------30.01- 79.7 87.3----
2024-05-30 02:18 am-------30.01- 79.7 87.3----
2024-05-30 02:12 am-------30.01- 79.9 87.3----
2024-05-30 02:06 am-------30.01- 80.2 87.3----
2024-05-30 02:00 am-------30.02-0.01 80.6 87.3----
2024-05-30 01:54 am-------30.02- 81.0 87.3----
2024-05-30 01:48 am-------30.02-- 87.3----
2024-05-30 01:42 am-------30.03-- 87.3----
2024-05-30 01:36 am-------30.03-- 87.3----
2024-05-30 01:30 am-------30.03- 82.0 87.3----
2024-05-30 01:24 am-------30.03- 82.2 87.3----
2024-05-30 01:18 am-------30.03- 82.9 87.3----
2024-05-30 01:12 am-------30.03- 82.8 87.3----
2024-05-30 01:06 am-------30.03- 81.5 87.3----
2024-05-30 01:00 am-------30.03+0.02 81.5 87.3----
2024-05-30 12:54 am-------30.03- 81.5 87.3----
2024-05-30 12:48 am-------30.03-- 87.3----
2024-05-30 12:42 am-------30.03-- 87.3----
2024-05-30 12:36 am-------30.03-- 87.3----
2024-05-30 12:30 am-------30.04- 81.0 87.3----
2024-05-30 12:24 am-------30.04- 81.1 87.3----
2024-05-30 12:18 am-------30.04- 81.3 87.3----
2024-05-30 12:12 am-------30.04- 81.3 87.3----
2024-05-30 12:06 am-------30.04- 81.5 87.4----
2024-05-30 12:00 am-------30.04+0.04 81.5 87.4----
2024-05-29 11:54 pm-------30.04- 81.7 87.4----
2024-05-29 11:48 pm-------30.03- 82.6 87.4----
2024-05-29 11:42 pm-------30.03- 83.3 87.4----
2024-05-29 11:36 pm-------30.03- 84.0 87.4----
2024-05-29 11:30 pm-------30.02- 84.2 87.4----
2024-05-29 11:24 pm-------30.03- 84.6 87.4----
2024-05-29 11:18 pm-------30.03- 84.6 87.4----
2024-05-29 11:12 pm-------30.03- 84.7 87.4----
2024-05-29 11:06 pm-------30.03- 84.9 87.4----
2024-05-29 11:00 pm-------30.03+0.04 84.9 87.4----
2024-05-29 10:54 pm-------30.03- 85.1 87.4----
2024-05-29 10:48 pm-------30.03- 85.3 87.4----
2024-05-29 10:42 pm-------30.02- 85.3 87.4----
2024-05-29 10:36 pm-------30.02- 85.5 87.4----
2024-05-29 10:30 pm-------30.02- 85.5 87.4----
2024-05-29 10:24 pm-------30.02- 85.6 87.4----
2024-05-29 10:18 pm-------30.02- 85.6 87.4----
2024-05-29 10:12 pm-------30.02- 85.6 87.4----
2024-05-29 10:06 pm-------30.02- 86.0 87.4----
2024-05-29 10:00 pm-------30.01+0.03 85.8 87.4----
2024-05-29 09:54 pm-------30.01- 86.2 87.6----
2024-05-29 09:48 pm-------30.01- 86.2 87.6----
2024-05-29 09:42 pm-------30.01- 86.5 87.6----
2024-05-29 09:36 pm-------30.01- 86.5 87.6----
2024-05-29 09:30 pm-------30.01- 86.9 87.6----
2024-05-29 09:24 pm-------30.00- 86.7 87.6----
2024-05-29 09:18 pm-------30.00- 87.1 87.8----
2024-05-29 09:12 pm-------30.00- 87.4 87.8----
2024-05-29 09:06 pm-------30.00- 87.4 87.6----
2024-05-29 09:00 pm-------29.99+0.01 87.6 87.8----
2024-05-29 08:54 pm-------30.00- 87.8 87.6----
2024-05-29 08:48 pm-------29.99- 88.2 87.8----
2024-05-29 08:42 pm-------29.99- 88.5 87.8----
2024-05-29 08:36 pm-------29.99- 88.7 87.8----
2024-05-29 08:30 pm-------29.99- 88.9 87.6----
2024-05-29 08:24 pm-------29.99- 89.1 87.6----
2024-05-29 08:18 pm-------29.99- 89.1 87.6----
2024-05-29 08:12 pm-------29.99- 89.6 87.4----
2024-05-29 08:06 pm-------29.99- 90.0 87.4----
2024-05-29 08:00 pm-------29.99+0.00 90.1 87.4----
2024-05-29 07:54 pm-------29.99- 90.5 88.0----
2024-05-29 07:48 pm-------29.99-- 88.0----
2024-05-29 07:42 pm-------29.99-- 87.8----
2024-05-29 07:36 pm-------29.99-- 87.8----
2024-05-29 07:30 pm-------29.99- 91.9 87.8----
2024-05-29 07:24 pm-------29.99- 92.1 87.8----
2024-05-29 07:18 pm-------29.98- 92.5 87.4----
2024-05-29 07:12 pm-------29.98- 92.8 87.3----
2024-05-29 07:06 pm-------29.98- 93.0 87.4----
2024-05-29 07:00 pm-------29.98-0.01 92.8 87.4----
2024-05-29 06:54 pm-------29.98- 93.2 87.4----
2024-05-29 06:48 pm-------29.98- 93.4 87.3----
2024-05-29 06:42 pm-------29.98- 93.6 87.3----
2024-05-29 06:36 pm-------29.98- 93.2 87.3----
2024-05-29 06:30 pm-------29.98- 93.6 87.3----
2024-05-29 06:24 pm-------29.98- 93.6 87.3----
2024-05-29 06:18 pm-------29.98- 93.6 87.3----
2024-05-29 06:12 pm-------29.98- 93.7 87.1----
2024-05-29 06:06 pm-------29.98- 94.1 87.4----
2024-05-29 06:00 pm-------29.98-0.04 93.7 87.4----
2024-05-29 05:54 pm-------29.98- 93.9 87.3----
2024-05-29 05:48 pm-------29.98- 93.4 87.3----
2024-05-29 05:42 pm-------29.98- 93.2 87.3----
2024-05-29 05:36 pm-------29.98- 93.4 87.3----
2024-05-29 05:30 pm-------29.98- 93.9 87.3----
2024-05-29 05:24 pm-------29.98- 93.2 87.3----
2024-05-29 05:18 pm-------29.98- 93.0 87.3----
2024-05-29 05:12 pm-------29.98- 93.4 86.9----
2024-05-29 05:06 pm-------29.98- 93.6 87.1----
2024-05-29 05:00 pm-------29.98-0.04 93.9 87.3----
2024-05-29 04:54 pm-------29.98- 93.9 87.4----
2024-05-29 04:48 pm-------29.98-- 87.4----
2024-05-29 04:42 pm-------29.98-- 87.4----
2024-05-29 04:36 pm-------29.98-- 87.8----
2024-05-29 04:30 pm-------29.98- 93.6 88.0----
2024-05-29 04:24 pm-------29.99- 92.5 88.2----
2024-05-29 04:18 pm-------29.99- 93.0 87.6----
2024-05-29 04:12 pm-------29.99- 93.7 87.4----
2024-05-29 04:06 pm-------29.99- 92.8 87.4----
2024-05-29 04:00 pm-------29.99-0.04 93.7 87.6----
2024-05-29 03:54 pm-------29.99- 93.6 87.8----
2024-05-29 03:48 pm-------30.00- 93.6 87.6----
2024-05-29 03:42 pm-------30.00- 93.0 87.6----
2024-05-29 03:36 pm-------30.00- 93.2 87.6----
2024-05-29 03:30 pm-------30.00- 93.6 87.6----
2024-05-29 03:24 pm-------30.01- 93.6 88.0----
2024-05-29 03:18 pm-------30.01- 93.4 87.6----
2024-05-29 03:12 pm-------30.01- 93.6 87.6----
2024-05-29 03:06 pm-------30.01- 93.4 87.6----
2024-05-29 03:00 pm-------30.01- 93.4 87.6----
2024-05-29 02:54 pm-------30.01- 93.0 87.8----
2024-05-29 02:48 pm-------30.01- 93.0 87.8----
2024-05-29 02:42 pm-------30.02- 92.8 87.8----
2024-05-29 02:36 pm-------30.02- 93.6 87.6----
2024-05-29 02:30 pm-------30.02- 92.7 87.6----
2024-05-29 02:24 pm-------30.03- 92.3 87.4----
2024-05-29 02:18 pm-------30.03- 92.8 87.4----
2024-05-29 02:12 pm-------30.03- 92.5 87.4----
2024-05-29 02:06 pm-------30.03- 92.5 87.3----
2024-05-29 02:00 pm-------30.03-0.03 92.1 87.3----
2024-05-29 01:54 pm-------30.03- 91.2 87.3----
2024-05-29 01:48 pm-------30.03- 91.9 87.3----
2024-05-29 01:42 pm-------30.03- 92.8 87.3----
2024-05-29 01:36 pm-------30.03- 92.8 87.3----
2024-05-29 01:30 pm-------30.03- 92.1 87.4----
2024-05-29 01:24 pm-------30.03- 92.5 87.3----
2024-05-29 01:18 pm-------30.03-- 87.3----
2024-05-29 01:12 pm-------30.03-- 87.4----
2024-05-29 01:06 pm-------30.03-- 87.6----
2024-05-29 01:00 pm-------30.03-0.01 91.8 87.4----
2024-05-29 12:54 pm-------30.04- 91.6 87.4----
2024-05-29 12:48 pm---------- 87.4----
2024-05-29 12:42 pm---------- 87.6----
2024-05-29 12:36 pm---------- 87.6----
2024-05-29 12:30 pm--------- 89.4-----
2024-05-29 12:24 pm--------- 91.0-----
2024-05-29 12:18 pm--------- 90.9-----
2024-05-29 12:12 pm--------- 91.4-----
2024-05-29 12:06 pm--------- 90.7-----
2024-05-29 12:00 pm--------- 90.3-----
2024-05-29 11:54 am--------- 89.6-----
2024-05-29 11:48 am-------30.06-- 87.6----
2024-05-29 11:42 am-------30.06-- 87.3----
2024-05-29 11:36 am-------30.06-- 87.6----
2024-05-29 11:30 am---------- 87.8----
2024-05-29 11:24 am---------- 87.8----
2024-05-29 11:18 am-------30.06- 89.1 87.6----
2024-05-29 11:12 am-------30.06- 88.7 87.6----
2024-05-29 11:06 am-------30.06- 88.9 87.6----
2024-05-29 11:00 am-------30.06+0.02 87.4 87.6----
2024-05-29 10:54 am-------30.06- 86.9 87.6----
2024-05-29 10:48 am-------30.06-- 87.6----
2024-05-29 10:42 am-------30.06-- 87.6----
2024-05-29 10:36 am-------30.06-- 87.6----
2024-05-29 10:30 am-------30.06- 89.6 87.6----
2024-05-29 10:24 am-------30.05- 88.3 87.4----
2024-05-29 10:18 am-------30.06- 86.5 87.4----
2024-05-29 10:12 am-------30.05- 87.1 87.4----
2024-05-29 10:06 am-------30.05- 89.6 87.4----
2024-05-29 10:00 am-------30.05+0.00 88.0 87.3----
2024-05-29 09:54 am-------30.05- 88.0 87.3----
2024-05-29 09:48 am-------30.05- 87.1 87.3----
2024-05-29 09:42 am-------30.05- 86.4 87.6----
2024-05-29 09:36 am-------30.05- 86.7 87.6----
2024-05-29 09:30 am-------30.05- 85.5 87.6----
2024-05-29 09:24 am-------30.05- 85.1 86.9----
2024-05-29 09:18 am-------30.05- 84.4 86.9----
2024-05-29 09:12 am-------30.05- 83.8 86.9----
2024-05-29 09:06 am-------30.05- 83.7 86.9----
2024-05-29 09:00 am-------30.05+0.03 83.7 86.9----
2024-05-29 08:54 am-------30.05- 83.3 87.1----
2024-05-29 08:48 am-------30.05- 82.9 87.1----
2024-05-29 08:42 am-------30.05- 82.8 87.3----
2024-05-29 08:36 am-------30.05- 82.6 87.3----
2024-05-29 08:30 am-------30.05- 82.6 87.4----
2024-05-29 08:24 am-------30.05- 82.6 87.4----
2024-05-29 08:18 am-------30.05- 82.4 87.3----
2024-05-29 08:12 am-------30.05- 82.4 87.3----
2024-05-29 08:06 am-------30.05- 82.0 87.3----
2024-05-29 08:00 am-------30.04+0.06 82.0 87.3----
2024-05-29 07:54 am-------30.05- 82.0 87.3----
2024-05-29 07:48 am-------30.04-- 87.3----
2024-05-29 07:42 am-------30.04-- 87.4----
2024-05-29 07:36 am-------30.04-- 87.4----
2024-05-29 07:30 am-------30.04- 80.6 87.4----
2024-05-29 07:24 am-------30.04- 80.4 87.4----
2024-05-29 07:18 am-------30.04- 79.9 87.4----
2024-05-29 07:12 am-------30.04- 80.8 87.4----
2024-05-29 07:06 am-------30.04- 81.0 87.4----
2024-05-29 07:00 am-------30.04+0.08 80.8 87.4----
2024-05-29 06:54 am-------30.04- 80.8 87.4----
2024-05-29 06:48 am-------30.04- 80.8 87.4----
2024-05-29 06:42 am-------30.03- 80.8 87.4----
2024-05-29 06:36 am-------30.03- 80.8 87.4----
2024-05-29 06:30 am-------30.03- 80.8 87.4----
2024-05-29 06:24 am-------30.02- 81.0 87.4----
2024-05-29 06:18 am-------30.02- 81.0 87.4----
2024-05-29 06:12 am-------30.02- 81.0 87.4----
2024-05-29 06:06 am-------30.02- 81.0 87.4----
2024-05-29 06:00 am-------30.02+0.03 81.0 87.4----
2024-05-29 05:54 am-------30.01- 81.0 87.4----
2024-05-29 05:48 am-------30.01- 81.0 87.4----
2024-05-29 05:42 am-------30.01- 81.0 87.6----
2024-05-29 05:36 am-------30.00- 81.0 87.8----
2024-05-29 05:30 am-------30.00- 80.8 87.8----
2024-05-29 05:24 am-------29.99- 81.0 87.8----
2024-05-29 05:18 am-------29.99- 81.0 87.8----
2024-05-29 05:12 am-------29.99- 81.0 87.8----
2024-05-29 05:06 am-------29.99- 81.0 87.8----
2024-05-29 05:00 am-------29.98-0.02 80.8 87.8----
2024-05-29 04:54 am-------29.98- 80.8 87.8----
2024-05-29 04:48 am-------29.97- 80.8 87.8----
2024-05-29 04:42 am-------29.97- 80.8 87.8----
2024-05-29 04:36 am-------29.97- 80.8 87.8----
2024-05-29 04:30 am-------29.96- 80.8 87.8----
2024-05-29 04:24 am-------29.96- 80.8 87.8----
2024-05-29 04:18 am-------29.97- 80.8 87.8----
2024-05-29 04:12 am-------29.97- 80.8 87.8----
2024-05-29 04:06 am-------29.96- 80.8 87.8----
2024-05-29 04:00 am-------29.96- 80.8 87.8----
2024-05-29 03:54 am-------29.96- 81.0 87.8----
2024-05-29 03:48 am-------29.96- 81.0 87.8----
2024-05-29 03:42 am-------29.96- 81.0 88.0----
2024-05-29 03:36 am-------29.97- 81.1 88.0----
2024-05-29 03:30 am-------29.97- 81.1 88.0----
2024-05-29 03:24 am-------29.98- 81.1 88.0----
2024-05-29 03:18 am-------29.98- 81.3 88.0----
2024-05-29 03:12 am-------29.98- 81.5 88.0----
2024-05-29 03:06 am-------29.98- 81.7 88.0----
2024-05-29 03:00 am-------29.98-0.04 81.5 88.0----
2024-05-29 02:54 am-------29.98- 81.5 88.0----